Location: Kampernieuwstad
(52.5135°N, 5.8742°E)
Time: 11:01:54
(UTC+00:00)

Cosmos 2278 - Pass Details

Date: 15 May 2026
Orbit: 837 x 852 km, 71.1° (Epoch: 7 June)

Event Time Altitude Azimuth Distance (km) Brightness Sun altitude
Rises 20:59:33 0° 327° (NNW) 3,432 9.1 -11.1°
Reaches altitude 10° 21:02:03 10° 323° (NW) 2,492 7.7 -11.3°
Maximum altitude 21:07:37 56° 247° (WSW) 1,008 4.2 -11.8°
Enters shadow 21:12:32 13° 172° (S) 2,240 5.4 -12.2°
